Theta_e
366 353 352 362 353 350 349 351 372 365 364 364 366 363 368 362 360 367 360 362 365 355
363 361 355 366 368 357 365 353 357 358 364 364 364 367 373 360 362 364 364 364 366 360
362 364 365 368 370 366 367 366 360 360 359 362 365 366 373 365 369 366 360 360 371 369
362 361 364 362 367 367 369 370 368 365 362 361 362 366 371 371 368 368 369 367 366 367
364 364 363 363 363 368 368 371 371 369 367 363 362 367 367 361 361 361 362 363 369 365
364 364 364 365 365 366 368 370 368 370 370 367 364 365 367 367 364 360 362 365 367 367
364 365 364 366 367 368 370 370 370 371 371 370 367 364 361 364 367 367 362 365 367 367
366 367 367 366 368 369 370 370 371 371 371 369 365 359 363 363 364 367 365 365 365 367
366 368 367 367 368 369 370 370 371 371 370 368 359 342 339 355 360 363 364 364 367 369
366 367 368 368 369 369 370 370 370 370 370 369 370 336 334 339 360 362 363 365 366 362
366 367 369 370 369 371 370 370 370 370 371 371 368 335 331 335 360 360 363 365 368 368
366 367 369 368 369 371 370 371 370 372 372 371 370 332 328 336 357 358 363 366 367 367
368 368 369 370 370 371 371 370 364 367 372 359 372 337 326 336 356 358 355 363 367 341
370 371 372 373 373 373 370 366 369 369 372 373 367 368 325 322 362 355 354 353 353 356
Wind_Speed
14 11 11 10 9 9 8 8 11 10 9 9 10 8 7 8 7 7 6 5 6 8
15 16 13 12 11 8 7 7 8 9 10 10 9 8 8 7 7 6 6 5 7 6
18 17 14 12 11 11 9 9 4 9 10 10 9 9 8 8 10 7 7 9 9 6
18 19 17 14 13 12 9 8 10 9 10 10 10 10 9 9 7 10 9 8 6 7
19 19 18 17 16 14 13 11 10 11 11 11 11 10 11 12 10 10 9 10 9 10
20 19 19 18 17 16 15 14 14 13 12 12 12 11 12 12 12 11 11 11 10 11
21 20 19 17 17 17 15 15 14 14 13 13 13 13 13 13 12 11 12 11 11 11
20 19 18 19 18 17 16 15 15 14 14 14 14 13 14 13 12 12 12 11 11 12
19 19 20 19 18 17 16 16 16 15 15 15 14 16 15 15 12 12 12 12 12 12
18 19 19 19 18 18 17 16 16 16 15 16 16 12 15 17 13 12 12 12 11 11
19 19 18 18 18 17 16 17 16 16 16 15 14 12 13 14 14 13 14 12 12 13
19 19 19 19 18 16 15 15 15 15 16 16 15 15 16 14 15 14 15 13 14 15
18 18 19 19 18 16 15 16 15 16 16 16 15 14 16 16 13 14 13 14 15 15
18 18 17 16 15 15 16 15 14 14 13 15 15 14 17 19 14 13 13 13 12 12
Wind_Direction
203 207 218 205 207 216 223 199 145 178 204 222 184 203 191 194 222 194 211 238 265 304
202 213 202 212 211 235 224 225 172 195 198 215 214 210 177 232 207 150 223 204 228 249
192 199 219 202 209 210 221 234 220 196 207 215 217 211 214 215 195 176 220 233 180 228
193 196 201 214 199 211 223 224 206 223 205 216 213 208 206 240 250 192 209 256 267 209
196 197 199 203 210 199 207 208 220 211 214 213 216 210 207 219 226 221 227 222 234 242
202 200 201 197 203 201 199 203 211 212 215 210 213 214 212 219 225 232 216 224 225 232
199 201 201 198 198 203 200 199 206 209 212 213 212 213 220 216 224 228 227 229 236 237
199 200 200 201 200 199 203 201 205 207 210 212 215 215 213 222 218 218 229 239 234 234
195 196 201 201 200 200 199 203 203 210 211 213 219 211 199 206 221 225 224 228 232 242
193 197 201 198 197 198 199 199 206 209 212 216 220 210 196 199 220 225 223 228 232 237
194 198 197 199 201 197 197 202 204 210 211 216 220 204 194 195 218 228 240 242 233 232
196 194 198 200 198 198 201 205 210 211 212 215 222 198 192 184 220 229 235 238 238 243
198 197 201 201 199 197 200 208 213 214 213 214 220 199 198 193 224 228 230 229 234 231
198 200 202 201 202 200 201 208 212 219 215 218 216 219 190 193 218 232 228 237 240 233